Location: Carlisle
(34.5501°N, 84.5969°W)
Time: 17:25:02
(UTC+00:00)

Tiangong - Visible Passes

Search period start: 27 November 2021 00:00
Search period end: 07 December 2021 00:00
Orbit: 381 x 385 km, 41.5° (Epoch: 27 November)

Date Brightness Start Highest point End Pass type
(mag) Time Alt. Az. Time Alt. Az. Time Alt. Az.
27 Nov 4.0 10:08:38 18° ESE 10:08:38 18° ESE 10:09:35 10° ESE visible
27 Nov 3.1 11:40:54 10° W 11:42:59 16° SW 11:45:04 10° S visible
28 Nov 2.6 10:43:40 27° S 10:43:40 27° S 10:45:42 10° SSE visible
05 Dec 3.7 00:23:14 10° SSW 00:23:55 14° SSW 00:23:55 14° SSW visible
05 Dec 3.4 23:24:13 10° SSE 23:25:32 12° SE 23:26:37 11° ESE visible
